Über Starlink 1752
Group: 3 satellites
Beschreibung wird geladen...
Live-Position
3D-Globus wird geladen...
Nächste Überflüge
Höhenverlauf
Altitude vs Time
uPlot chart will show altitude changes over time
Zweizeiliger Elementsatz
1 46338U 20062P 25353.33335648 .00106287 00000-0 18776-2 0 9992
2 46338 53.0508 3.8001 0012055 24.8231 10.3850 15.49469215 5897
Epoch: 19. Dez. 2025 •
Age: 8 hours
Aktueller Status
Höhe 422.0 km
Geschwindigkeit 7.67 km/s
Subsatellitenpunkt 52.19°N,
138.85°E
Startdatum 3. Sept. 2020
Alter 5.2 years
Typ internet
Startgruppe
Falcon 9 •
Launch 11 •
34 satellites
Starlink 1734
46325
Starlink 1654 46326
Starlink 1686 46328
Starlink 1695 46329
Starlink 1710 46330
Starlink 1719 46331
Starlink 1723 46333
Starlink 1727 46335
Starlink 1738 46336
Starlink 1750 46337
Starlink 1759 46340
Starlink 1762 46342
Starlink 1764 46343
Starlink 1765 46344
Starlink 1767 46345
Starlink 1547 46347
Starlink 1553 46348
Starlink 1575 46349
Starlink 1646 46351
Starlink 1653 46352
...and 13 more
Technische Details
Klassifizierung Payload
Masse 260.00 kg
Trockenmasse 248.00 kg
Gesamtmasse 260.00 kg
Länge 0.20 m
Durchmesser 2.80 m
Spannweite 9.00 m
Form Box + pan
Hersteller SPXS
Bus-Typ Starlink
Phasenstatus In Orbit
Besitzer/Staat SPXS/US
Große Konstellationen
Loading constellations...